Regional Weather Roundup
Issued by NWS

Home | Current Version | Previous Version | Text Only | Print | Product List | Glossary On
Versions: 1 2 3 4 5 6 7 8 9 10 11 12 13 14 15 16 17 18 19 20 21 22 23 24 25 26 27 28 29 30 31 32 33 34 35 36 37 38 39 40 41 42 43 44 45 46 47 48 49 50
000
ASUS43 KLMK 102302
RWRKY
KENTUCKY REGIONAL WEATHER ROUNDUP
NATIONAL WEATHER SERVICE LOUISVILLE KY
600 PM EST SUN DEC 10 2017

NOTE "FAIR" INDICATES FEW OR NO CLOUDS BELOW 12,000 FEET
WITH NO SIGNIFICANT WEATHER AND/OR OBSTRUCTIONS TO VISIBILITY.

KYZ001>023-026-027-061>063-070>075-110000-
WESTERN AND SOUTH CENTRAL KENTUCKY

CITY           SKY/WX    TMP DP  RH WIND       PRES   REMARKS
PADUCAH        CLEAR     47  28  47 SW8       30.08R
HENDERSON      CLEAR     39  26  59 SW7       30.06R WCI  34
OWENSBORO      CLEAR     36  25  64 SW7       30.06R WCI  30
HOPKINSVILLE   CLEAR     44  21  41 SW7       30.09R
BOWLING GREEN  CLEAR     42  21  43 SW6       30.09R
GLASGOW        NOT AVBL
$$

KYZ024-025-028>034-038-045-046-053-110000-
NORTH CENTRAL KENTUCKY

CITY           SKY/WX    TMP DP  RH WIND       PRES   REMARKS
LOUISVILLE/SDF CLEAR     40  19  43 SW7       30.04R
LOUISVILLE/LOU CLEAR     39  21  48 SW8       30.04S WCI  33
FORT KNOX      CLEAR     36  19  51 SW6       30.03R WCI  31
$$

KYZ035>037-039>044-047>052-055>060-089>105-110000-
NORTHEAST KENTUCKY

CITY           SKY/WX    TMP DP  RH WIND       PRES   REMARKS
LEXINGTON      CLEAR     33  19  56 SW9       30.03R WCI  25
COVINGTON      PTCLDY    33  20  58 SW7       30.00R WCI  27
FRANKFORT      CLEAR     35  18  49 SW8       30.03R WCI  29
$$

KYZ054-064>069-076>088-106>120-110000-
SOUTHEAST KENTUCKY

CITY           SKY/WX    TMP DP  RH WIND       PRES   REMARKS
JACKSON        CLEAR     34  16  47 SW5       30.02F WCI  30
LONDON         CLEAR     38  15  39 SW7       30.05F WCI  33
SOMERSET       NOT AVBL
MIDDLESBORO    CLEAR     38  19  47 S3        30.11S
MONTICELLO     PTCLDY    36  19  50 W10       30.09S WCI  28
$$





USA.gov is the U.S. government's official web portal to all federal, state and local government web resources and services.